719  
ASHW40 PHFO 051543  
RWRHI  
 
WEATHER ROUNDUP FOR HAWAII  
NATIONAL WEATHER SERVICE HONOLULU HI  
500 AM HST THU MAR 05 2015  
 
THIS IS AN AUTOMATED REPORT THAT HAS NOT BEEN QUALITY CONTROLLED.  
 
NOTE..."FAIR" INDICATES FEW OR NO CLOUDS BELOW 12,000 FEET WITH NO  
SIGNIFICANT WEATHER AND/OR S TO VISIBILITY
.  
 
* - THESE SITES REPORT LIMITED FIELDS  
 
HIZ001>004-051600-  
KAUAI-NIIHAU-  
 
CITY SKY/WX TMP DP RH WIND PRES REMARKS
 
LIHUE APT LGT RAIN 68 62 81 N15 29.99F  
PORT ALLEN* N/A 64 N/A N/A N8 N/A  
POIPU* NOT AVBL  
PRINCEVILLE* N/A 68 N/A N/A MISG N/A  
KOKOLE POINT* NOT AVBL  
MOLOAA DAIRY* NOT AVBL  
WAIMEA HTS* NOT AVBL  
PUU OPAE* N/A 59 54 82 VRB1 N/A  
PUU LUA* NOT AVBL  
MAKAHA RIDGE* NOT AVBL  

 
 
HIZ005>011-051600-  
OAHU-  
 
CITY SKY/WX TMP DP RH WIND PRES REMARKS
 
HONOLULU MOCLDY 70 64 80 N7 29.94F  
KALAELOA CLOUDY 67 62 84 VRB6 29.96S  
KANEOHE MCB CLOUDY 69 63 81 NE20 29.93F  
WHEELER FIELD DRIZZLE 64 62 94 NW8 29.95S  
BELLOWS* N/A N/A N/A N/A N15G23 N/A  
KAHUKU* N/A N/A N/A N/A NE5G15 N/A  
WHEELER* NOT AVBL  
WAIANAE HARBOR NOT AVBL  
DILLINGHAM* N/A 66 63 88 MISG N/A  
KAHUKU TRN* N/A 64 61 88 NE7G21 N/A  
KAWAILOA* N/A N/A N/A N/A NE8G17 N/A  
KII* N/A 70 63 78 NE16G24 N/A  
MAKUA RANGE* N/A 68 63 83 E14G26 N/A  
OAHU FOREST NW N/A N/A N/A N/A CALM N/A  
SCHOFIELD BRK* N/A N/A N/A N/A MISG N/A  
SCHOFIELD S* NOT AVBL  
WAIANAE VLY* N/A 64 61 88 N8G24 N/A  
KUAOKALA* N/A 66 59 77 CALM N/A  
HONOULIUULI* NOT AVBL  
MOKUOLOE IS* N/A N/A N/A N/A MISG N/A  
PALEHUA* N/A N/A N/A N/A CALM N/A  
WAIAWA PHB* NOT AVBL  

 
 
HIZ012>013-051600-  
MOLOKAI-  
 
CITY SKY/WX TMP DP RH WIND PRES REMARKS
 
MOLOKAI AIRPT RAIN 67 65 93 N15 29.95S  
KALAUPAPA NOT AVBL  
MAKAPULAPAI* N/A 66 64 94 NE13G24 N/A  
MOLOKAI 1* N/A 61 61 100 N9G26 N/A  
PUU ALII* N/A 55 55 100 SE3G16 N/A  

 
 
HIZ016-051600-  
KAHOOLAWE-  
 
CITY SKY/WX TMP DP RH WIND PRES REMARKS
 
KAHOOLAWE* N/A 63 N/A N/A N13G24 N/A  
HAKIOAWA* N/A 63 63 100 MISG 30.35S  
HONOKANAIA* N/A 66 63 90 NW18G35 29.94S  
KANELOA* N/A 70 64 83 MISG 29.13F  
KEALIALALO* NOT AVBL  
LUA MAKIKA* NOT AVBL  

 
 
HIZ014>015-051600-  
LANAI-  
 
CITY SKY/WX TMP DP RH WIND PRES REMARKS
 
LANAI CITY CLOUDY 64 64 100 NE23G29 29.96F  
LANAI 1* N/A 64 64 100 NE16G24 N/A  

 
 
HIZ017>028-051600-  
MAUI-  
 
CITY SKY/WX TMP DP RH WIND PRES REMARKS
 
KAHULUI CLOUDY 67 64 90 E10 29.94S  
KAPALUA-W MAUI NOT AVBL  
HANA AIRPORT MOCLDY 63 63 100 CALM 29.98F  
HANA* N/A 64 N/A N/A E5G12 N/A  
HALEAKALA SUMM N/A 37 37 100 NE20 N/A WCI 27  
MAALAEA BAY* NOT AVBL  
HALEAKALA* NOT AVBL  
KAUPO GAP* N/A 55 54 94 N2G8 N/A  
KULA 1* N/A 46 45 93 CALM N/A  

 
 
HIZ023>026-051600-  
BIG ISLAND OF HAWAII COAST AND LOWER SLOPES-  
 
CITY SKY/WX TMP DP RH WIND PRES REMARKS
 
KAILUA KONA CLOUDY 70 66 88 CALM 29.89S  
HILO CLOUDY 64 61 90 S6 29.93S  
HONOKAA* NOT AVBL  
KAWAIHAE MWT* N/A 68 N/A N/A E3 N/A  
KAWAIHAE* N/A 70 N/A N/A N2 N/A  
SOUTH POINT* N/A 63 N/A N/A NE12 N/A  
UPOLU AIRPORT* N/A N/A N/A N/A E7 N/A  
KAMUELA* MOSUNNY 57 54 88 N15 29.99S  
HAKALAU* N/A 46 46 100 S3 N/A  
KALOKO-HONOKO* N/A 66 64 94 NE3 29.88F  
PALI 2* N/A 57 54 88 N9G17 N/A  
KEALAKOMO* N/A 70 59 68 N12G23 N/A  
KAUPULEHU* N/A 63 57 82 E6 N/A  
KAPAPALA* N/A 60 59 97 CALM N/A  
LOWER KAHUKU* N/A 57 55 94 VRB2 N/A  
PUHE CS* N/A 66 63 88 E5 N/A  
PUHO CS* N/A 66 32 28 NE2 N/A  
PTA KEAMUKU* N/A 55 54 94 CALM N/A  
WAIKOLOA* N/A 63 55 77 E12 N/A  

 
 
HIZ027>028-051600-  
BIG ISLAND OF HAWAII INTERIOR AND SUMMMITS-  
 
CITY SKY/WX TMP DP RH WIND PRES REMARKS
 
BRADSHAW FIELD CLOUDY 48 46 93 SE3 30.14F  
MK VISITOR CEN NOT AVBL  
MAUNA KEA* N/A 28 28 100 NW24 N/A WCI 14  
MAUNA LOA* N/A N/A N/A N/A MISG N/A  
MAUNA LOA 1* NOT AVBL  
PTA KIPUKA* N/A 52 50 93 NW3 N/A  
PTA RANGE 17* N/A 48 48 100 VRB3 N/A  
PTA WEST* N/A 54 54 100 VRB2 N/A  
NENE CABIN* N/A 48 46 93 NE2 N/A  
AHUMOA* N/A 46 46 100 VRB1G9 N/A  
PTA PORTABLE* NOT AVBL  
PUU MALI* NOT AVBL  

 
 
HIC003-051600-  
NORTHWEST ISLANDS-  
 
CITY SKY/WX TMP DP RH WIND PRES REMARKS
 
MIDWAY ISLAND CLOUDY 59 52 77 E18 30.37F  
MIDWAY NOS* NOT AVBL  
FRENCH FRIGATE NOT AVBL  

 
 
PHZ110>124-180-051600-  
BUOY REPORTS  
 
STATION/POSITION TIME TEMP WIND PRES WAVE SWELL
 
AIR SEA DIR/SP/G HT/PER HT/DIR  
(UTC) (F) (DEG/KT/KT) (MB) (FT/S) (FT/D)  
BUOY 51001 NOT AVBL  
BUOY 51101 1500 66 71 40/ 19/ 23 1018.6R 10/10 7/ 30  
BUOY 51100 1500 69 75 20/ 14/ 17 1013.5R  
BUOY 51003 1500 75 78 50/ 19/ 23 1012.8F 9/ 9 7  
BUOY 51004 1419 75 78 40/ 14/ 16 1010.4R 8/ 9 7/ 80  
BARBERS PT BUOY NOT AVBL  
WAIMEA BAY BUOY 1500 77 N/A 9/ 8 3/300  
KAILUA BAY BUOY 1500 76 N/A 8/ 9 2/ 60  
LANAI BUOY 1500 76 N/A 3/13 2/190  
BARBERS PT 2 1500 77 N/A 3/13 2/240  
PAUWELA MAUI 1500 75 N/A 9/ 9 3/310  
HILO 1500 77 N/A 7/ 9 3/ 40  
KANEOHE BAY BUOY 1500 76 N/A 8/ 8 2/ 30  
HANALEI KAUAI NOT AVBL  
KAHULUI HARBOR 1500 69 75 60/ 11/ 20 1013.6R  
HONOLULU HARBOR 1500 69 76 120/ 2/ 6 1013.9F  
KILO NALU NOT AVBL  
HILO HARBOR 1500 64 77 230/ 3/ 5 1013.1F  
MOKUOLOE 1500 71 76 360/ 17/ 20 1014.3F  
NAWILIWILI 1500 66 77 350/ 6/ 11 1015.4R  
WHOTS BUOY NOT AVBL  
BUOY 51028 NOT AVBL  

 
   
.....................KEY.....................................
 
 
SKY/WX - SKY CONDITIONS/PRESENT WEATHER  
TMP - TEMPERATURE IN FAHRENHEIT  
DWPT - DEWPOINT IN FAHRENHEIT  
RH - RELATIVE HUMIDITY IN PERCENT  
WIND - DIRECTION AND SPEED /MPH FOR ISLANDS...KTS FOR BUOYS/  
PRES - MEAN SEA LEVEL PRESSURE IN INCHES OF HG  
VSB - VISIBILITY IN MILES  
HX - HEAT INDEX  
WCI - WIND CHILL INDEX  
VRB - VARIABLE WIND DIRECTION  
N/A - NOT AVAILABLE  
 
CLICK HERE TO GO TO PREVIOUS BULLETINS.

The Nexlab HI Page Main Text Page